FW4383 Weather Reports


Display with metric or nautical units.
time (UTC)temp
F
wind
direction
speed
MPH
gust
MPH
rain 1hr
in
rain 24hr
in
rain mn
in
humidity
%
barometer
mb
20260510074535 48 180 1.0 2.0 0.00 0.00 0.00 86 1018.7
20260510073035 49 180 0.0 2.0 0.00 0.00 0.00 85 1018.7
20260510070030 49 225 0.0 0.0 0.00 0.00 0.00 83 1018.6
20260510064607 50 225 0.0 0.0 0.00 0.00 0.00 82 1018.6
20260510063152 51 225 0.0 0.0 0.00 0.00 0.00 81 1018.5
20260510061534 52 225 0.0 0.0 0.00 0.00 0.00 80 1018.4
20260510060036 53 225 0.0 0.0 0.00 0.00 0.00 80 1018.3
20260510054608 54 222 0.0 3.0 0.00 0.00 0.00 79 1018.2
20260510050107 57 181 1.0 3.0 0.00 0.00 0.00 78 1017.9
20260510044535 57 171 0.0 4.0 0.00 0.00 0.00 77 1017.8
20260510043037 58 159 0.0 3.0 0.00 0.00 0.00 75 1017.7
20260510041536 60 159 0.0 3.0 0.00 0.00 0.00 72 1017.4
20260510031535 70 262 0.0 2.0 0.00 0.00 0.00 58 1016.8
20260510024538 71 292 0.0 0.0 0.00 0.00 0.00 56 1016.8
20260510021535 74 292 0.0 0.0 0.00 0.00 0.00 53 1016.7
20260510014536 77 292 0.0 1.0 0.00 0.00 0.00 40 1017.0
20260510013036 76 292 0.0 2.0 0.00 0.00 0.00 43 1017.1
20260510011536 77 292 0.0 1.0 0.00 0.00 0.00 38 1017.2
20260510010030 79 292 2.0 4.0 0.00 0.00 0.00 33 1017.3
20260510004535 81 307 2.0 5.0 0.00 0.00 0.00 32 1017.4
20260510001535 83 328 1.0 4.0 0.00 0.00 0.00 28 1017.4
20260510000036 85 329 0.0 2.0 0.00 0.00 0.00 27 1017.6
20260509234535 84 22 1.0 4.0 0.00 0.00 0.00 27 1017.8
20260509233036 83 6 1.0 4.0 0.00 0.00 0.00 27 1018.0
20260509231535 83 1 3.0 7.0 0.00 0.00 0.00 28 1018.3
20260509230035 84 30 2.0 6.0 0.00 0.00 0.00 28 1018.8
20260509223110 83 109 2.0 6.0 0.00 0.00 0.00 30 1019.4
20260509214528 80 332 2.0 6.0 0.00 0.00 0.00 26 1019.9
20260509213030 81 19 2.0 8.0 0.00 0.00 0.00 28 1020.1
20260509211536 81 26 2.0 7.0 0.00 0.00 0.00 31 1020.3
20260509204532 78 351 2.0 7.0 0.00 0.00 0.00 34 1020.7
20260509201531 75 349 3.0 7.0 0.00 0.00 0.00 41 1021.4
20260509194531 75 1 2.0 7.0 0.00 0.00 0.00 42 1021.7
20260509193033 73 4 2.0 6.0 0.00 0.00 0.00 43 1021.9
20260509190145 71 327 2.0 7.0 0.00 0.00 0.00 48 1022.2
20260509184537 70 356 2.0 7.0 0.00 0.00 0.00 50 1022.5
20260509183034 70 356 3.0 7.0 0.00 0.00 0.00 51 1022.7
20260509181535 68 352 2.0 5.0 0.00 0.00 0.00 52 1022.8
20260509174535 66 303 3.0 5.0 0.00 0.00 0.00 56 1022.9
20260509173036 66 332 1.0 5.0 0.00 0.00 0.00 57 1023.0
20260509171535 65 30 1.0 5.0 0.00 0.00 0.00 59 1023.2
20260509170036 64 36 0.0 6.0 0.00 0.00 0.00 62 1023.5
20260509164537 62 351 1.0 4.0 0.00 0.00 0.00 63 1023.6
20260509163037 62 69 0.0 4.0 0.00 0.00 0.00 64 1023.7
20260509161534 60 30 2.0 5.0 0.00 0.00 0.00 67 1023.8
20260509160109 59 8 1.0 6.0 0.00 0.00 0.00 69 1024.1
20260509154536 58 319 1.0 4.0 0.00 0.00 0.00 71 1024.2
20260509153036 56 31 2.0 4.0 0.00 0.00 0.00 72 1024.1
20260509150111 54 67 1.0 3.0 0.00 0.00 0.00 75 1024.1
20260509144536 52 121 0.0 3.0 0.00 0.00 0.00 81 1024.2
20260509141537 46 68 0.0 2.0 0.00 0.00 0.00 89 1024.1
20260509140035 44 67 0.0 0.0 0.00 0.00 0.00 91 1024.1
20260509134535 42 67 0.0 2.0 0.00 0.00 0.00 90 1024.1
20260509133151 42 67 0.0 0.0 0.00 0.00 0.00 89 1024.1
20260509133144 42 67 0.0 0.0 0.00 0.00 0.00 89 1023.9
20260509130108 42 67 1.0 3.0 0.00 0.00 0.00 87 1023.7
20260509124536 43 67 0.0 0.0 0.00 0.00 0.00 85 1023.6
20260509123035 45 67 0.0 0.0 0.00 0.00 0.00 84 1023.5
20260509121536 46 95 1.0 4.0 0.00 0.00 0.00 83 1023.4
20260509114643 48 132 1.0 4.0 0.00 0.00 0.00 80 1023.3
20260509113034 50 145 0.0 5.0 0.00 0.00 0.00 75 1023.3
20260509111532 54 143 1.0 5.0 0.00 0.00 0.00 70 1023.3
20260509110037 56 219 4.0 11.0 0.00 0.00 0.00 68 1023.3
20260509104536 56 248 5.0 14.0 0.00 0.00 0.00 68 1023.3
20260509101535 56 248 6.0 11.0 0.00 0.00 0.00 69 1023.4
20260509100034 57 248 5.0 12.0 0.00 0.00 0.00 68 1023.4
20260509094532 57 252 8.0 16.0 0.00 0.00 0.00 68 1023.4
20260509093034 56 247 6.0 13.0 0.00 0.00 0.00 69 1023.6
20260509091608 57 240 6.0 11.0 0.00 0.00 0.00 69 1023.6
20260509083034 58 270 7.0 16.0 0.00 0.00 0.00 66 1024.0
20260509081533 57 277 5.0 14.0 0.00 0.00 0.00 66 1024.1
20260509080042 57 227 3.0 11.0 0.00 0.00 0.00 65 1024.2
20260509080035 58 224 4.0 11.0 0.00 0.00 0.00 65 1024.1